Regional Weather Roundup
Issued by NWS

Home | Current Version | Previous Version | Text Only | Print | Product List | Glossary Off
Versions: 1 2 3 4 5 6 7 8 9 10 11 12 13 14 15 16 17 18 19 20 21 22 23 24 25 26 27 28 29 30 31 32 33 34 35 36 37 38 39 40 41 42 43 44 45 46 47 48 49 50

000
ASUS43 KLOT 021608
RWRIL

ILLINOIS REGIONAL WEATHER ROUNDUP
NATIONAL WEATHER SERVICE CHICAGO/ROMEOVILLE IL
1100 AM CDT MON MAY 02 2016

NOTE: "FAIR" INDICATES FEW OR NO CLOUDS BELOW 12,000 FEET WITH NO
SIGNIFICANT WEATHER AND/OR OBSTRUCTIONS TO VISIBILITY.

* THESE STATIONS ARE NOT UNDER NWS QUALITY CONTROL. THEY ALSO MAY NOT
  REPORT WEATHER SUCH AS PRECIPITATION OR FOG.

ILZ001-002-007-009-015-016-024-021700-
NORTHWEST ILLINOIS

CITY           SKY/WX    TMP DP  RH WIND       PRES   REMARKS
MOLINE         CLOUDY    54  45  71 N8        30.08S
STERLING*      PTSUNNY   55  45  67 NE7       30.08S
SAVANNA*       MOSUNNY   56  40  54 E9        30.08F
$$

ILZ003-004-008-010-011-017-018-021700-
NORTH CENTRAL ILLINOIS

CITY           SKY/WX    TMP DP  RH WIND       PRES   REMARKS
ROCKFORD       PTSUNNY   58  39  49 NE12      30.09F
FREEPORT*      SUNNY     54  41  61 NE7       30.10S
ROCHELLE*      MOSUNNY   54  42  63 NE15      30.07S
DE KALB*       MOSUNNY   55  42  60 NE16      30.06F
$$

ILZ005-006-012>014-019>023-021700-
NORTHEAST ILLINOIS

CITY           SKY/WX    TMP DP  RH WIND       PRES   REMARKS
CHICAGO-OHARE  PTSUNNY   52  37  56 NE14      30.05F
CHICAGO-MIDWAY PTSUNNY   52  36  54 NE17      30.04F
AURORA         CLOUDY    56  37  49 NE18G28   30.05F
LANSING*       MOSUNNY   49  40  71 NE14      30.04S
JOLIET*        PTSUNNY   57  39  52 NE14G23   30.04R
WAUKEGAN       SUNNY     53  38  56 NE10      30.07S
DUPAGE AIRPORT MOSUNNY   55  36  48 NE17G25   30.04F
KANKAKEE*      PTSUNNY   53  44  71 N14G20    30.04R
WHEELING       MOSUNNY   52  37  56 NE14      30.07F
MORRIS*        MOSUNNY   56  40  53 NE8G16    30.03S
ROMEOVILLE*    MOSUNNY   54  37  51 NE15G25   30.04S
NORTHERLY ISL    N/A     48  40  73 NW14        N/A
NORTHERLY ISL    N/A     48  40  73 NW14        N/A
$$

LMZ740>746-021700-
SOUTHERN LAKE MICHIGAN

STATION/POSITION SKY/WX   TEMP    WIND        PRES    VSBY  WAVE
                          AIR SEA DIR/SP/G                  HT/PER
                          (F)     (DEG/KT/KT) (MB)    (MI)  (FT/S)
SOUTHERN BUOY              41 40  340/  8/  8 1018.3R         1/ 4
HARRISON CRIB              45     360/ 14/ 16   N/A
BURNHAM HARBOR             48     350/ 12/ 14   N/A
CALUMET HARBOR             47     340/ 11/ 16 1017.3S
BURNS HARBOR               45      20/ 16/ 17 1017.3S
MICHIGAN CITY              45      10/ 13/ 13   N/A
ST. JOSEPH                 46 48                N/A           2/ 4
$$

ILZ025>027-034>036-040-047-049-050-058-095>099-021700-
WEST-CENTRAL ILLINOIS

CITY           SKY/WX    TMP DP  RH WIND       PRES   REMARKS
QUINCY         CLOUDY    53  47  79 N8        30.06F
GALESBURG*     CLOUDY    51  44  77 N10       30.08R
MACOMB*        CLOUDY    51  47  87 N9        30.09S
JACKSONVILLE*  CLOUDY    53  47  79 N7        30.06R
PITTSFIELD*    CLOUDY    53  48  81 N8        30.08S
$$

ILZ028>032-037-038-041>044-048-051>054-059>061-021700-
CENTRAL ILLINOIS

CITY           SKY/WX    TMP DP  RH WIND       PRES   REMARKS
PONTIAC        PTSUNNY   56  49  77 NE15      30.05R
BLOOMINGTON    CLOUDY    51  47  86 NE9       30.05S
DECATUR        CLOUDY    53  46  77 N9        30.04S
PEORIA         CLOUDY    53  44  71 NE8       30.06S
LACON*         PTSUNNY   54  43  66 NE8       30.05S
LINCOLN*       CLOUDY    50  47  88 N9        30.06R
SPRINGFIELD    CLOUDY    53  47  79 N8        30.06R
TAYLORVILLE    CLOUDY    50  46  87 N7        30.05R
$$

ILZ033-039-045-046-055>057-062-063-021700-
EAST-CENTRAL ILLINOIS

CITY           SKY/WX    TMP DP  RH WIND       PRES   REMARKS
CHAMPAIGN      CLOUDY    50  46  86 N9        30.02F
RANTOUL*       CLOUDY    51  46  84 NE8       30.02F
MATTOON        LGT RAIN  50  46  86 N8        30.03R FOG
PARIS*         CLOUDY    50  49  96 NW3       30.03R FOG
$$

ILZ079-100>102-021700-
SOUTHWEST ILLINOIS

CITY           SKY/WX    TMP DP  RH WIND       PRES   REMARKS
ALTON          CLOUDY    52  46  82 NE7       30.06S
BELLEVILLE     MOSUNNY   56  49  76 VRB7      30.04R
CAHOKIA*       CLOUDY    56  47  71 NW7       30.05S
SPARTA*        CLOUDY    55  47  74 NW7       30.06R
$$

ILZ064>066-069>071-074>076-080>082-084>086-088>090-092>094-021700-
SOUTH-CENTRAL ILLINOIS

CITY           SKY/WX    TMP DP  RH WIND       PRES   REMARKS
CARBONDALE     CLOUDY    58  47  66 NW7       30.04R
CAIRO*         CLOUDY    60  50  69 NE3       30.04F
EFFINGHAM*     CLOUDY    54  48  81 NW6       30.05S
MARION         CLOUDY    59  48  67 NW8       30.05R
MT. VERNON     CLOUDY    55  46  71 W5        30.05R
CENTRALIA*     CLOUDY    54  51  90 N3        30.04R
SALEM*         CLOUDY    56  49  76 NW5       30.05R
METROPOLIS*    CLOUDY    60  52  75 CALM      30.04F
$$

ILZ067-068-072-073-078-083-087-091-021700-
SOUTHEAST ILLINOIS

CITY           SKY/WX    TMP DP  RH WIND       PRES   REMARKS
LAWRENCEVILLE  CLOUDY    56  49  77 NW12      30.02R
FLORA*         CLOUDY    55  48  76 NW7       30.04R
FAIRFIELD*     CLOUDY    57  50  77 CALM      30.03R
HARRISBURG*    CLOUDY    59  50  71 W5        30.05R
ROBINSON*      CLOUDY    54  48  81 N6        30.03S
CARMI*         CLOUDY    58  49  71 W5        30.02R
$$

ABBREVIATIONS USED IN REMARKS
   TC - TEMPERATURE IN CELSIUS
  WCI - WIND CHILL INDEX
   HX - HEAT INDEX
  VSB - VISIBILITY
$$





USA.gov is the U.S. government's official web portal to all federal, state and local government web resources and services.